Flag for Colombia Weather past 2 weeks in Bogota, Colombia

Now
59 °F

Passing clouds.


Feels Like: 57 °F
Forecast: 50 / 62 °F
Wind: 12 mph from Southeast

Location: Bogota / Eldorado

Current Time: Jul 29, 2015 at 9:45:53 PM

Latest Report: Jul 29, 2015 at 9:00 PM


Visibility: 5 mi

Pressure: 30.05 "Hg (22.03 "Hg at 2618m altitude)

Humidity: 63%

Dew point: 46 °F

Location of BogotaLocation

Historic Weather in Bogota — Graph

°F

Bogota temperature yesterday

Maximum temperature yesterday: 66 °F (at 1:00 PM)
Minimum temperature yesterday: 48 °F (at 4:00 AM)
Average temperature yesterday: 57 °F

Past Weeks' High & Low Weather Summary

 TemperatureHumidityPressure
High68 °F (Jul 16, 1:00 PM)100% (Jul 15, 6:00 AM)30.44 "Hg (Jul 15, 6:00 AM)
Low37 °F (Jul 19, 8:00 PM)40% (Jul 16, 3:00 PM)30.07 "Hg (Jul 29, 9:00 PM)
Average57 °F73%30.35 "Hg
* Reported Jul 14 9:00 PM — Jul 29 9:00 PM, Bogota, Weather by CustomWeather, © 2015

Note: Actual official high and low records may vary slightly from our data, if they occured in-between our weather recording intervals... More about our weather records

Advertising

Bogota weather history for previous 24 hours

 ConditionsComfort  
Time TempWeatherWind HumidityBarometerVisibility
9:00 PM
Wed, Jul 29
57 °FPassing clouds.8 mph72%30.07 "Hg5 mi
8:00 PM54 °FPassing clouds.5 mph77%30.32 "HgN/A
7:00 PM61 °FPassing clouds.5 mph55%30.31 "HgN/A
6:00 PM61 °FScattered clouds.12 mph63%30.28 "HgN/A
5:00 PM64 °FScattered clouds.9 mph52%30.27 "HgN/A
4:00 PM66 °FScattered clouds.14 mph46%30.26 "HgN/A
3:00 PM66 °FPartly sunny.12 mph49%30.27 "HgN/A
2:00 PM66 °FScattered clouds.16 mph52%30.29 "HgN/A
1:00 PM66 °FScattered showers. Partly sunny.16 mph52%30.32 "HgN/A
12:00 PM66 °FPartly sunny.16 mph52%30.35 "HgN/A
11:00 AM63 °FPartly sunny.7 mph52%30.36 "HgN/A
10:00 AM61 °FScattered showers. Partly sunny.14 mph59%30.37 "HgN/A
9:00 AM59 °FScattered showers. Partly sunny.9 mph63%30.36 "HgN/A
8:00 AM57 °FScattered showers. Scattered clouds.5 mph77%30.35 "HgN/A
7:00 AM52 °FScattered showers. Partly sunny.7 mph88%30.35 "HgN/A
6:00 AM52 °FPartly sunny.2 mph88%30.32 "HgN/A
5:30 AM52 °FPassing clouds.6 mph88%30.32 "HgN/A
5:00 AM52 °FPassing clouds.8 mph88%30.31 "HgN/A
4:00 AM50 °FPassing clouds.10 mph94%30.30 "HgN/A
3:00 AM52 °FPassing clouds.8 mph82%30.32 "HgN/A
2:00 AM52 °FPassing clouds.5 mph88%30.34 "HgN/A
1:00 AM52 °FPassing clouds.7 mph82%30.35 "HgN/A
12:00 AM50 °FPassing clouds.12 mph88%30.35 "HgN/A
11:00 PM
Tue, Jul 28
52 °FPassing clouds.8 mph88%30.35 "HgN/A
10:00 PM52 °FPassing clouds.5 mph94%30.36 "HgN/A
9:00 PM54 °FPassing clouds.6 mph88%30.35 "Hg6 mi
Weather by CustomWeather, © 2015

See weather overviewHow to use our weather pages